Tracking 19638 objects as of 19-May-2019
HD Live streaming from Space Station
objects crossing your sky now

COSMOS 1066

Track COSMOS 1066 now!
10-day predictions
COSMOS 1066 is classified as:


NORAD ID: 11165
Int'l Code: 1978-121A
Perigee: 825.5 km
Apogee: 896.5 km
Inclination: 81.2 °
Period: 102.0 minutes
Semi major axis: 7232 km
RCS: 4.6495 m2 (large)
Launch date: December 23, 1978
Source: Commonwealth of Independent States (former USSR) (CIS)
Launch site: PLESETSK MISSILE AND SPACE COMPLEX (PKMTR)
aabbcc
Your satellite tracking list
Your tracking list is empty




NASA's NSSDC Master Catalog

Two Line Element Set (TLE):
1 11165U 78121A   19138.83706872 -.00000042  00000-0 -29749-4 0  9999
2 11165  81.2379 262.3545 0049059 234.5558 125.1029 14.11610049596672
Source of the keplerian elements: AFSPC